Location: Eefde
(52.1701°N, 6.2284°E)
Time: 10:05:41
(UTC+00:00)

Daily predictions for brighter satellites

Satellite Brightness Start Highest point End
(mag) Time Altitude Azimuth Time Altitude Azimuth Time Altitude Azimuth
SPOT 3 Rocket 3.6 20:35:11 10° SSE 20:40:18 78° ENE 20:45:29 10° NNW
FAST 4.4 20:39:08 10° N 20:41:48 80° E 20:44:39 10° SSE
YAOGAN 11 4.1 20:37:34 10° NNE 20:42:03 74° ESE 20:46:28 10° S
NOSS 2-2 (D) 3.6 20:40:17 10° WSW 20:43:27 53° NW 20:46:24 10° NE
Cosmos 2082 4.2 20:39:30 10° SW 20:45:06 68° NW 20:50:44 10° NNE
Okean 3 Rocket 3.6 20:41:32 10° N 20:46:01 72° ENE 20:50:25 10° SSE
Cosmos 2227 4.3 20:40:31 10° SSW 20:46:12 66° ESE 20:51:55 10° NE
Cosmos 724 4.3 20:40:49 10° NW 20:46:41 83° NE 20:52:28 10° SE
Helios 1A Rocket 3.7 20:45:10 10° N 20:48:08 40° WNW 20:51:05 10° SW
Meteor 2-20 Rocket 4.5 20:42:50 10° S 20:48:39 88° WNW 20:54:44 10° N
CZ-4 R/B 4.0 20:46:55 10° WSW 20:48:45 13° W 20:50:37 10° WNW
Cosmos 2263 Rocket 4.0 20:44:14 10° WSW 20:49:23 37° NW 20:54:33 10° NNE
Ariane Rocket 3.1 20:44:53 10° SSE 20:49:56 73° ENE 20:55:01 10° NNW
IRS-1C Rocket 4.2 20:45:15 10° SSE 20:50:29 74° ENE 20:55:45 10° NNW
Okean-O 3.5 20:46:55 10° S 20:51:07 47° W 20:55:22 10° NNW
Cosmos 1805 Rocket 3.9 20:48:02 10° N 20:52:17 53° ENE 20:56:31 10° SSE
Spot 2 Rocket 4.5 20:48:11 10° S 20:53:02 45° W 20:57:55 10° NNW
Cosmos 1340 Rocket 2.6 20:51:55 10° NNW 20:55:43 85° ENE 20:59:26 10° SSE
Cosmos 1408 Rocket 3.8 20:52:06 10° N 20:56:27 59° ENE 21:00:49 10° SSE
NOSS 3-2 (A) 3.2 20:51:55 10° SSW 20:56:51 56° SE 21:02:48 10° NE
Cosmos 1603 4.0 20:51:58 10° NW 20:57:41 69° WSW 21:03:19 10° SSE
USA 215 3.3 20:51:43 10° ESE 20:58:16 89° NNE 21:04:51 10° WNW
Cosmos 1842 Rocket 3.7 20:54:21 10° SSW 20:58:48 81° W 21:03:16 10° N
Cosmos 773 Rocket 4.2 20:56:11 10° SSW 21:01:19 75° WNW 21:06:31 10° NNE
Cosmos 1743 Rocket 4.2 20:59:39 10° N 21:03:47 43° ENE 21:07:49 11° SE
Cosmos 1703 4.1 21:04:34 11° SE 21:06:59 24° E 21:09:37 10° NE
USA 245 3.5 21:03:54 10° S 21:07:34 55° WSW 21:10:36 10° NNW
Cosmos 1844 Rocket 2.7 21:03:01 10° SSW 21:08:37 90° NW 21:14:13 10° NNE
SL-14 R/B 3.3 21:07:54 10° SSW 21:11:37 77° WNW 21:15:21 10° N
CZ-4C R/B 4.0 21:07:39 10° WNW 21:14:02 37° WSW 21:21:40 10° S
Cosmos 1553 Rocket 4.2 21:08:22 10° S 21:14:38 63° E 21:20:52 10° NNE
Cosmos 1833 Rocket 3.2 21:11:54 10° NNW 21:17:28 55° NE 21:22:56 10° SE
Cosmos 1151 Rocket 3.0 21:15:02 10° S 21:19:21 69° E 21:23:40 10° NNE
Cosmos 2082 Rocket 4.2 21:17:57 10° NNW 21:22:19 22° NE 21:26:37 10° E
CZ-2C R/B 1.8 21:23:48 14° SSE 21:26:01 88° W 21:28:47 10° NNW
Cosmos 1953 2.7 21:23:25 10° N 21:26:50 41° ENE 21:29:35 14° SE
SL-24 R/B - RUBIN 2 3.7 21:24:40 10° SW 21:29:09 79° NW 21:33:32 10° NE
Cosmos 1844 4.1 21:24:01 10° SW 21:29:48 73° WNW 21:35:38 10° NNE
CZ-4B R/B 4.0 21:25:01 10° S 21:30:00 59° WSW 21:35:10 10° NNW
Cosmos 2278 Rocket 4.2 21:29:24 10° ESE 21:30:47 11° E 21:32:09 10° E
Okean O Rocket 3.7 21:27:29 10° SW 21:30:48 21° W 21:34:08 10° NW
Cosmos 1633 Rocket 3.9 21:30:35 10° N 21:34:41 37° ENE 21:38:07 14° SE
NOSS 3-2 (C) 3.4 21:33:29 10° SSW 21:38:18 46° ESE 21:44:01 10° NE
Cosmos 1461 4.2 21:39:54 10° WNW 21:42:41 22° WSW 21:45:06 12° SSW
NOSS 2-3 (C) 4.2 21:42:37 17° SSE 21:44:13 23° ESE 21:47:07 10° ENE
Cosmos 1745 Rocket 4.1 21:39:20 10° N 21:45:38 76° ENE 21:51:04 14° SSE
CZ-4B R/B 4.5 21:43:17 10° SSW 21:46:38 28° W 21:50:05 10° NW
Cosmos 1500 Rocket 4.4 21:48:40 10° NNW 21:52:48 44° W 21:56:47 10° SSW
Helios 1A 3.4 21:51:07 10° NNE 21:54:52 41° E 21:57:27 18° SSE
Cosmos 2344 4.0 21:49:39 10° S 21:56:46 39° ESE 22:03:18 10° NE
GP-B 3.5 21:52:54 10° N 21:57:13 60° W 22:01:23 11° SSW
Helios 1B rocket 2.8 21:57:41 17° SE 22:00:01 40° ENE 22:03:18 10° N
Iridium 4 Rocket 3.6 21:55:05 11° S 22:00:17 80° W 22:05:20 10° N
ARIANE 5 R/B 3.6 21:59:12 14° SE 22:02:39 38° ENE 22:06:46 10° N
SWARM A 4.2 22:00:19 10° N 22:03:34 78° W 22:05:44 19° S
Cosmos 1470 Rocket 4.0 22:02:13 10° N 22:06:35 51° ENE 22:09:41 18° SE
Okean 2 4.4 22:07:04 18° SE 22:09:06 29° E 22:12:28 10° NNE
Cosmos 1420 Rocket 4.0 22:03:58 10° NNW 22:09:14 80° ENE 22:13:10 18° SSE
NOSS 2-3 (D) 3.1 22:07:42 10° SSW 22:11:20 62° SE 22:15:11 10° NE
ALOS 2 3.5 22:11:55 15° SE 22:15:09 41° ENE 22:19:17 10° N
Cosmos 1538 Rocket 3.9 22:11:36 10° SSW 22:16:43 81° ESE 22:21:58 10° NNE
Cosmos 2315 Rocket 4.1 22:13:37 16° S 22:18:42 70° E 22:24:53 10° NNE
Cosmos 1943 Rocket 3.1 22:16:33 18° SSE 22:19:52 32° ESE 22:24:50 10° NE
CENTAUR R/B 4.2 22:14:36 10° W 22:20:33 41° NNW 22:27:59 10° NE
Meteor 1-21 4.4 22:18:14 18° S 22:22:25 62° E 22:28:00 10° NNE
Cosmos 923 Rocket 4.4 22:21:16 19° S 22:24:47 46° ESE 22:29:46 10° NE
CZ-2C R/B 4.2 22:22:15 10° NNE 22:26:49 48° E 22:29:46 21° SSE
Cosmos 1328 Rocket 3.5 22:24:40 18° S 22:27:56 88° WNW 22:32:18 10° N
Lacrosse 5 rocket 1.7 22:30:45 25° S 22:31:48 30° SE 22:34:56 10° ENE
Cosmos 1666 Rocket 4.1 22:30:19 10° NNW 22:34:33 51° W 22:37:29 18° SSW
CZ-2C R/B 3.8 22:31:43 11° ESE 22:36:11 33° ENE 22:40:50 10° N
USA 81 4.3 22:32:03 10° N 22:37:17 58° E 22:40:53 20° SSE
NOSS 2-3 (E) 3.3 22:35:17 10° SW 22:38:56 77° NW 22:42:53 10° NE
Cosmos 1371 Rocket 4.1 22:34:33 10° NNW 22:39:51 76° ENE 22:43:38 19° SSE
USA 215 3.9 22:37:29 19° SSE 22:41:45 39° SW 22:47:50 10° WNW
PSLV R/B 4.4 22:37:41 10° NNE 22:42:06 42° E 22:44:44 21° SSE
Cosmos 1869 Rocket 4.3 22:41:50 10° N 22:45:58 42° ENE 22:48:44 19° SE
GEOS 3 Rocket 3.9 22:45:16 20° SSE 22:48:57 59° SW 22:54:18 10° NW
S3M 4.4 22:48:41 12° SSW 22:54:19 58° WNW 23:00:24 10° N
MetOp-A 4.1 22:53:36 18° SE 22:56:11 43° ENE 22:59:49 10° N
NOSS 2-1 (D) 4.3 22:55:58 22° SE 22:56:13 22° SE 22:58:46 10° ENE
Cosmos 2154 Rocket 4.3 22:51:05 10° N 22:57:15 62° ENE 23:01:51 18° SSE
Cosmos 1515 Rocket 3.5 22:55:38 23° S 22:58:17 80° E 23:02:38 10° NNE
Cosmos 2184 Rocket 4.2 22:52:03 10° N 22:58:17 68° ENE 23:02:54 19° SSE
ARGOS Delta rocket 4.2 22:52:54 10° N 22:58:20 79° WNW 23:02:18 18° SSW
NOSS 2-1 (C) 4.4 22:59:06 20° SE 22:59:15 20° SE 23:01:42 10° ENE
CSL-04 DEB 4.4 22:57:32 26° S 22:59:25 59° WSW 23:03:04 10° NNW
Cosmos 1833 Rocket 3.8 22:56:11 10° NW 23:01:08 32° WSW 23:04:36 17° SSW
Cosmos 1953 4.2 22:59:00 10° NW 23:01:27 18° W 23:03:47 10° SW
USA 59 Rocket 0.3 23:01:29 27° SE 23:01:59 28° SE 23:04:41 10° ENE
Spot 4 4.0 22:59:30 22° S 23:02:33 67° WSW 23:07:23 10° NNW
Cosmos 1733 Rocket 4.4 23:02:11 10° N 23:05:58 30° ENE 23:09:08 13° SE
SAR-Lupe-2 3.5 23:05:49 28° SSE 23:07:20 65° ENE 23:10:33 10° N
Cosmos 2082 Rocket 2.3 23:01:40 10° NNW 23:07:21 75° ENE 23:11:52 16° SE
Okean 3 3.3 23:09:18 26° S 23:11:23 70° E 23:15:23 10° NNE
Cosmos 2278 Rocket 2.3 23:09:54 21° S 23:13:39 60° ESE 23:19:14 10° NE
Cosmos 1331 Rocket 4.1 23:14:30 10° NNW 23:19:40 71° ENE 23:23:34 18° SE
Okean 1-7 4.5 23:20:00 16° SE 23:22:17 25° E 23:25:46 10° NNE
Cosmos 1400 Rocket 3.0 23:20:11 10° NNW 23:23:49 52° W 23:25:30 27° SSW
Cosmos 1624 Rocket 4.4 23:18:58 10° NNW 23:24:06 51° WSW 23:27:15 23° S
COSMOS 2406 3.8 23:19:58 10° NNW 23:25:36 55° NE 23:31:10 10° SE
CZ-2C R/B 3.3 23:20:36 10° NNE 23:26:12 67° ESE 23:29:38 23° S
Cosmos 1680 Rocket 3.5 23:22:43 18° SSW 23:26:38 82° WNW 23:31:52 10° NNE
Cosmos 494 Rocket 4.0 23:24:38 20° SSW 23:28:22 89° ESE 23:33:39 10° NNE
NOSS 3-2 (C) 4.2 23:23:50 10° WSW 23:29:03 51° NNW 23:35:27 10° NE
Cosmos 2056 Rocket 4.0 23:25:59 10° NW 23:30:49 43° WSW 23:33:39 22° SSW
Helios 1B rocket 4.0 23:31:35 14° SW 23:33:07 18° W 23:35:36 10° NW
NOSS 2-3 (C) 4.3 23:30:49 10° WSW 23:34:05 42° NW 23:37:49 10° NE
Cosmos 1048 Rocket 4.3 23:31:19 23° S 23:34:22 53° ESE 23:39:30 10° NNE
Cosmos 1812 2.6 23:34:26 10° NNW 23:35:32 25° WNW 23:35:32 25° WNW
Cosmos 1328 4.0 23:35:16 28° SSE 23:36:51 49° E 23:40:18 10° NNE
ARIANE 5 R/B 3.8 23:36:34 19° SW 23:39:00 31° W 23:42:58 10° NNW
ACS3 Solar Sail 2.3 23:33:51 10° NNE 23:39:20 45° E 23:43:11 19° SSE
USA 238 DEB 3.5 23:36:16 14° SW 23:41:40 79° SE 23:48:32 10° NE
Lacrosse 4 Rocket 4.1 23:38:37 10° NNW 23:41:46 20° NNE 23:44:54 10° E
USA 238 3.5 23:36:31 14° SW 23:41:52 78° SE 23:48:45 10° NE
BREEZE-M DEB (TANK) 3.3 23:37:23 10° W 23:49:47 70° SSW 23:53:41 10° ESE
ALOS 2 4.0 23:49:18 18° SW 23:51:37 27° W 23:55:24 10° NW
Cosmos 1441 Rocket 3.4 23:54:17 25° SW 23:55:50 47° WNW 23:59:00 10° N
